Santa Fe, NM

11:08 PM MDT on June 28, 2017 (GMT -0600)
Santa Fe Municipal

Weather History for KSAF - May, 2013

Change the Weather History Date:

Thursday, May 16, 2013

  Actual Average Record
Temperature  
Mean Temperature 64 °F -  
Max Temperature 84 °F 65 °F 86 °F (1978)
Min Temperature 46 °F 38 °F 33 °F (1998)
Degree Days  
Heating Degree Days 1    
Growing Degree Days 14 (Base 50)    
Moisture  
Dew Point 19 °F    
Average Humidity 24    
Maximum Humidity 59    
Minimum Humidity 6    
Precipitation  
Precipitation 0.00 in - - ()
Sea Level Pressure  
Sea Level Pressure 29.77 in    
Wind  
Wind Speed 8 mph (WNW)    
Max Wind Speed 25 mph    
Max Gust Speed 32 mph    
Visibility 10 miles    
Events      
Averages and records for this station are not official NWS values.
T = Trace of Precipitation, MM = Missing Value Source: NWS Daily Summary

Daily Weather History Graph

Daily Weather History Graph

Search for Another Location

Airport or City:

Trip Planner

Search our weather history database for the weather conditions in past years. The results will help you decide how hot, cold, wet, or windy it might be!

Date:

Astronomy

May. 16, 2013 Rise Set
Actual Time 5:58 AM MDT 8:03 PM MDT
Civil Twilight 5:30 AM MDT 8:32 PM MDT
Nautical Twilight 4:55 AM MDT 9:06 PM MDT
Astronomical Twilight 4:18 AM MDT 9:44 PM MDT
Moon 11:30 AM MDT (5/16) 12:29 AM MDT (5/16)
Length of Visible Light 15h 02m
Length of Day
14h 05m
Waxing Crescent, 36% of the Moon is Illuminated
May 16
Waxing Crescent
May 17
First Quarter
May 24
Full
May 31
Last Quarter
Jun 8
New

Hourly Weather History & Observations

Time (MDT) Temp. Dew Point Humidity Pressure Visibility Wind Dir Wind Speed Gust Speed Precip Events Conditions
12:53 AM 52.0 °F 37.0 °F 57% 29.81 in 10.0 mi North 9.2 mph - N/A   Clear
1:53 AM 51.1 °F 36.0 °F 56% 29.80 in 10.0 mi NNE 5.8 mph - N/A   Clear
2:53 AM 52.0 °F 37.0 °F 57% 29.80 in 10.0 mi Calm Calm - N/A   Clear
3:53 AM 50.0 °F 36.0 °F 59% 29.83 in 10.0 mi Calm Calm - N/A   Clear
4:53 AM 50.0 °F 30.9 °F 48% 29.82 in 10.0 mi Calm Calm - N/A   Clear
5:53 AM 48.9 °F 28.9 °F 46% 29.82 in 10.0 mi Calm Calm - N/A   Clear
6:53 AM 46.9 °F 28.9 °F 50% 29.86 in 10.0 mi Calm Calm - N/A   Clear
7:53 AM 59.0 °F 28.0 °F 31% 29.85 in 10.0 mi Calm Calm - N/A   Clear
8:53 AM 66.9 °F 19.0 °F 16% 29.83 in 10.0 mi NNW 3.5 mph - N/A   Clear
9:53 AM 71.1 °F 17.1 °F 13% 29.83 in 10.0 mi SW 10.4 mph 18.4 mph N/A   Clear
10:53 AM 73.9 °F 17.1 °F 12% 29.81 in 10.0 mi WSW 16.1 mph 21.9 mph N/A   Clear
11:53 AM 77.0 °F 15.1 °F 10% 29.80 in 10.0 mi WSW 18.4 mph 21.9 mph N/A   Clear
12:53 PM 80.1 °F 12.9 °F 8% 29.78 in 10.0 mi West 17.3 mph 31.1 mph N/A   Clear
1:53 PM 82.0 °F 14.0 °F 8% 29.74 in 10.0 mi West 11.5 mph 24.2 mph N/A   Clear
2:53 PM 82.9 °F 10.9 °F 7% 29.71 in 10.0 mi WSW 25.3 mph 32.2 mph N/A   Clear
4:53 PM 82.0 °F 8.1 °F 6% 29.69 in 10.0 mi WNW 20.7 mph 27.6 mph N/A   Clear
5:53 PM 82.9 °F 7.0 °F 6% 29.67 in 10.0 mi West 15.0 mph 19.6 mph N/A   Clear
6:53 PM 80.1 °F 8.1 °F 6% 29.68 in 10.0 mi West 15.0 mph - N/A   Clear
7:53 PM 75.0 °F 5.0 °F 7% 29.68 in 10.0 mi West 11.5 mph - N/A   Clear
8:53 PM 68.0 °F 6.1 °F 9% 29.69 in 10.0 mi NW 4.6 mph - N/A   Clear
9:53 PM 61.0 °F 7.0 °F 12% 29.72 in 10.0 mi NW 8.1 mph - N/A   Clear
10:53 PM 57.0 °F 8.1 °F 14% 29.73 in 10.0 mi NNE 6.9 mph - N/A   Clear
11:53 PM 55.0 °F 9.0 °F 16% 29.74 in 10.0 mi North 6.9 mph - N/A   Clear